Location: Nashville
(36.1660°N, 86.7840°W)
Time: 12:32:50
(UTC-05:00)

STRAND 1 - Visible Passes

Search period start: 16 May 2022 00:00
Search period end: 26 May 2022 00:00
Orbit: 767 x 781 km, 98.4° (Epoch: 16 May)

Date Brightness Start Highest point End Pass type
(mag) Time Alt. Az. Time Alt. Az. Time Alt. Az.
16 May ? 21:13:18 10° NNW 21:16:15 16° WNW 21:19:12 10° W visible
17 May ? 20:37:53 10° N 20:42:25 32° WNW 20:46:57 10° SW visible
19 May ? 21:09:46 10° NNW 21:12:57 17° WNW 21:16:07 10° WSW visible
20 May ? 20:34:29 10° N 20:39:06 34° WNW 20:43:42 10° SW visible
22 May ? 21:06:15 10° NNW 21:09:38 18° WNW 21:13:01 10° WSW visible
23 May ? 20:31:04 10° N 20:35:46 37° WNW 20:40:28 10° SW visible
25 May ? 21:02:45 10° NNW 21:06:19 19° WNW 21:09:53 10° WSW visible
